Location: Arena
(42.5007°N, 9.4650°E)
Time: 04:10:49
(UTC+00:00)

SL-4 R/B - Pass Details

Date: 09 April 2020
Orbit: 428 x 666 km, 51.6° (Epoch: 02 June)

Event Time Altitude Azimuth Distance (km) Brightness Sun altitude
Rises 20:42:47 0° 298° (WNW) 2,395 6.4 -27.6°
Reaches altitude 10° 20:45:20 10° 318° (NW) 1,537 5.3 -28.0°
Enters shadow 20:47:10 17° 350° (N) 1,172 4.2 -28.2°
